Location: Alpha Ridge Park
(39.3209°N, 76.9128°W)
Time: 17:42:28
(UTC-04:00)

Explorer 7 - Visible Passes

Search period start: 26 May 2019 00:00
Search period end: 05 June 2019 00:00
Orbit: 485 x 680 km, 50.3° (Epoch: 25 May)

Date Brightness Start Highest point End Pass type
(mag) Time Alt. Az. Time Alt. Az. Time Alt. Az.
26 May 8.4 01:35:14 10° NW 01:38:13 36° NNW 01:38:13 36° NNW visible
26 May 9.6 22:18:10 10° WNW 22:21:54 22° N 22:25:32 10° NE visible
26 May 9.1 23:59:44 10° NW 00:03:41 26° NNE 00:05:57 18° ENE visible
27 May 8.8 01:40:17 10° NW 01:42:13 24° NW 01:42:13 24° NW visible
27 May 9.5 22:23:40 10° NW 22:27:20 21° N 22:30:53 10° NE visible
28 May 8.6 00:04:49 10° NW 00:09:02 32° NNE 00:10:07 28° NE visible
28 May 9.3 01:45:25 10° WNW 01:46:24 16° WNW 01:46:24 16° WNW visible
28 May 9.4 22:29:01 10° NW 22:32:46 22° N 22:36:22 10° ENE visible
29 May 8.0 00:09:51 10° NW 00:14:19 42° NNE 00:14:23 42° NNE visible
29 May 9.7 01:50:41 10° WNW 01:50:41 10° WNW 01:50:41 10° WNW visible
29 May 9.5 20:52:25 10° WNW 20:56:20 23° N 21:00:11 10° NE visible
29 May 9.2 22:34:15 10° NW 22:38:10 24° N 22:41:57 10° ENE visible
30 May 7.8 00:14:53 10° NW 00:18:44 51° NNW 00:18:44 51° NNW visible
30 May 9.5 20:57:58 10° NW 21:01:46 22° N 21:05:28 10° NE visible
30 May 8.9 22:39:23 10° NW 22:43:33 28° NNE 22:46:51 13° ENE visible
31 May 8.0 00:19:58 10° NW 00:23:09 42° NW 00:23:09 42° NW visible
31 May 9.4 21:03:25 10° NW 21:07:12 22° N 21:10:53 10° NE visible
31 May 8.4 22:44:27 10° NW 22:48:52 36° NNE 22:51:18 21° ENE visible
01 Jun 8.6 00:25:07 10° WNW 00:27:36 29° WNW 00:27:36 29° WNW visible
01 Jun 9.3 21:08:44 10° NW 21:12:37 23° N 21:16:24 10° ENE visible
01 Jun 7.8 22:49:29 10° NW 22:54:08 48° NNE 22:55:48 33° E visible
02 Jun 9.1 00:30:26 10° WNW 00:32:06 20° W 00:32:06 20° W visible
02 Jun 9.0 21:13:55 10° NW 21:18:01 26° NNE 21:21:59 10° ENE visible
02 Jun 7.2 22:54:31 10° NW 22:59:19 70° NNE 23:00:21 51° E visible
03 Jun 9.6 00:36:02 10° W 00:36:39 13° W 00:36:39 13° W visible
03 Jun 8.7 21:19:02 10° NW 21:23:23 31° NNE 21:27:34 10° E visible
03 Jun 6.9 22:59:37 10° WNW 23:04:24 77° SW 23:04:56 67° SSE visible
04 Jun 8.2 21:24:05 10° NW 21:28:41 40° NNE 21:33:05 10° E visible
04 Jun 7.4 23:04:49 10° WNW 23:09:25 48° SW 23:09:35 48° SW visible
